• In Hungary
  • List of Countries
  • For 7 days
  • Water Temperature
  • Satellite Maps
  • Weather Map
  • News
  • Weather Widgets
  • user-avatar
    Login

    Hourly Weather Trujillo

    Today, 18 February, Sunday

    Time Temperature Precipitation Wind Pressure Humidity
    00:00 +18°C° 0 mm 1 mps 648 mmHg 76%
    01:00 +18°C° 0 mm 1 mps 648 mmHg 76%
    02:00 +18°C° 0 mm 1 mps 648 mmHg 77%
    03:00 +18°C° 0 mm 1 mps 648 mmHg 77%
    04:00 +16°C° 0 mm 1 mps 648 mmHg 77%
    05:00 +18°C° 0 mm 1 mps 648 mmHg 75%
    06:00 +18°C° 0 mm 1 mps 649 mmHg 74%
    07:00 +18°C° 0 mm 1 mps 649 mmHg 73%
    08:00 +20°C° 0 mm 1 mps 650 mmHg 67%
    09:00 +22°C° 0 mm 1 mps 651 mmHg 60%
    10:00 +24°C° 0 mm 1 mps 651 mmHg 54%
    11:00 +24°C° 0.1 mm 1 mps 651 mmHg 53%
    12:00 +25°C° 0.1 mm 2 mps 650 mmHg 51%
    13:00 +26°C° 0.1 mm 2 mps 650 mmHg 50%
    14:00 +25°C° 0.1 mm 2 mps 649 mmHg 50%
    15:00 +25°C° 0.1 mm 2 mps 648 mmHg 51%
    16:00 +25°C° 0.1 mm 2 mps 648 mmHg 51%
    17:00 +23°C° 0 mm 1 mps 647 mmHg 57%
    18:00 +21°C° 0 mm 1 mps 647 mmHg 62%
    19:00 +19°C° 0 mm 1 mps 646 mmHg 68%
    20:00 +19°C° 0 mm 1 mps 647 mmHg 68%
    21:00 +19°C° 0 mm 1 mps 647 mmHg 68%
    22:00 +18°C° 0 mm 1 mps 648 mmHg 69%
    23:00 +18°C° 0 mm 1 mps 648 mmHg 70%

    Tomorrow, 19 February, Monday

    Time Temperature Precipitation Wind Pressure Humidity
    00:00 +18°C° 0 mm 1 mps 648 mmHg 71%
    01:00 +16°C° 0 mm 1 mps 648 mmHg 72%
    02:00 +16°C° 0 mm 1 mps 647 mmHg 73%
    03:00 +16°C° 0 mm 1 mps 647 mmHg 74%
    04:00 +16°C° 0 mm 1 mps 647 mmHg 75%
    05:00 +16°C° 0 mm 1 mps 648 mmHg 73%
    06:00 +16°C° 0 mm 1 mps 648 mmHg 71%
    07:00 +18°C° 0 mm 1 mps 649 mmHg 69%
    08:00 +20°C° 0 mm 1 mps 650 mmHg 62%
    09:00 +21°C° 0 mm 2 mps 651 mmHg 54%
    10:00 +25°C° 0 mm 2 mps 652 mmHg 47%
    11:00 +26°C° 0 mm 2 mps 651 mmHg 44%
    12:00 +27°C° 0 mm 3 mps 651 mmHg 41%
    13:00 +27°C° 0 mm 3 mps 650 mmHg 38%
    14:00 +27°C° 0 mm 3 mps 649 mmHg 41%
    15:00 +26°C° 0 mm 3 mps 649 mmHg 43%
    16:00 +26°C° 0 mm 2 mps 648 mmHg 45%
    17:00 +24°C° 0 mm 2 mps 648 mmHg 53%
    18:00 +22°C° 0 mm 1 mps 647 mmHg 61%
    19:00 +19°C° 0 mm 1 mps 647 mmHg 69%
    20:00 +19°C° 0 mm 1 mps 648 mmHg 70%
    21:00 +19°C° 0 mm 1 mps 648 mmHg 72%
    22:00 +18°C° 0 mm 1 mps 648 mmHg 74%
    23:00 +18°C° 0 mm 1 mps 648 mmHg 74%

    Day after tomorrow, 20 February, Tuesday

    Time Temperature Precipitation Wind Pressure Humidity
    00:00 +16°C° 0 mm 1 mps 648 mmHg 75%
    01:00 +16°C° 0 mm 1 mps 648 mmHg 75%
    02:00 +16°C° 0 mm 1 mps 648 mmHg 75%
    03:00 +16°C° 0 mm 1 mps 647 mmHg 75%
    04:00 +15°C° 0 mm 1 mps 647 mmHg 75%
    05:00 +16°C° 0 mm 1 mps 648 mmHg 72%
    06:00 +18°C° 0 mm 1 mps 649 mmHg 70%
    07:00 +18°C° 0 mm 1 mps 650 mmHg 67%
    08:00 +21°C° 0 mm 1 mps 651 mmHg 60%
    09:00 +23°C° 0 mm 2 mps 651 mmHg 52%
    10:00 +25°C° 0 mm 2 mps 652 mmHg 45%
    11:00 +26°C° 0 mm 3 mps 652 mmHg 44%
    12:00 +26°C° 0 mm 3 mps 651 mmHg 43%
    13:00 +27°C° 0 mm 3 mps 650 mmHg 42%
    14:00 +26°C° 0 mm 3 mps 650 mmHg 45%
    15:00 +26°C° 0 mm 2 mps 649 mmHg 48%
    16:00 +25°C° 0 mm 2 mps 648 mmHg 50%
    17:00 +23°C° 0 mm 2 mps 648 mmHg 57%
    18:00 +22°C° 0 mm 1 mps 648 mmHg 64%
    19:00 +20°C° 0 mm 1 mps 648 mmHg 71%
    20:00 +19°C° 0 mm 1 mps 649 mmHg 73%
    21:00 +19°C° 0 mm 1 mps 649 mmHg 75%
    22:00 +19°C° 0 mm 1 mps 649 mmHg 76%
    23:00 +18°C° 0 mm 1 mps 649 mmHg 77%

    21 February, Wednesday

    Time Temperature Precipitation Wind Pressure Humidity
    00:00 +18°C° 0 mm 1 mps 648 mmHg 78%
    01:00 +18°C° 0 mm 1 mps 648 mmHg 79%
    02:00 +16°C° 0 mm 1 mps 648 mmHg 79%
    03:00 +16°C° 0 mm 1 mps 648 mmHg 80%
    04:00 +16°C° 0 mm 1 mps 648 mmHg 80%
    05:00 +16°C° 0 mm 1 mps 649 mmHg 78%
    06:00 +18°C° 0 mm 1 mps 649 mmHg 75%
    07:00 +18°C° 0 mm 1 mps 650 mmHg 72%
    08:00 +20°C° 0 mm 1 mps 651 mmHg 63%
    09:00 +23°C° 0 mm 2 mps 652 mmHg 54%
    10:00 +25°C° 0 mm 2 mps 653 mmHg 44%
    11:00 +26°C° 0 mm 3 mps 652 mmHg 43%
    12:00 +26°C° 0 mm 3 mps 651 mmHg 41%
    13:00 +27°C° 0 mm 3 mps 651 mmHg 40%
    14:00 +26°C° 0 mm 3 mps 650 mmHg 45%
    15:00 +25°C° 0 mm 2 mps 649 mmHg 50%
    16:00 +24°C° 0 mm 2 mps 648 mmHg 55%
    17:00 +22°C° 0.1 mm 1 mps 648 mmHg 62%
    18:00 +21°C° 0.1 mm 1 mps 648 mmHg 69%
    19:00 +19°C° 0.1 mm 1 mps 648 mmHg 76%
    20:00 +19°C° 0.1 mm 1 mps 648 mmHg 76%
    21:00 +19°C° 0.1 mm 1 mps 649 mmHg 77%
    22:00 +18°C° 0.1 mm 1 mps 649 mmHg 78%
    23:00 +18°C° 0.1 mm 1 mps 649 mmHg 78%

    22 February, Thursday

    Time Temperature Precipitation Wind Pressure Humidity
    00:00 +18°C° 0.1 mm 1 mps 648 mmHg 78%
    01:00 +16°C° 0.1 mm 1 mps 648 mmHg 78%
    02:00 +16°C° 0 mm 1 mps 648 mmHg 78%
    03:00 +16°C° 0 mm 1 mps 648 mmHg 79%
    04:00 +15°C° 0 mm 1 mps 648 mmHg 80%
    05:00 +16°C° 0 mm 1 mps 648 mmHg 78%
    06:00 +16°C° 0 mm 1 mps 649 mmHg 76%
    07:00 +18°C° 0 mm 1 mps 650 mmHg 74%
    08:00 +20°C° 0 mm 1 mps 651 mmHg 67%
    09:00 +22°C° 0 mm 1 mps 651 mmHg 59%
    10:00 +24°C° 0 mm 2 mps 652 mmHg 52%
    11:00 +24°C° 0.1 mm 2 mps 651 mmHg 52%
    12:00 +24°C° 0.1 mm 2 mps 651 mmHg 53%
    13:00 +24°C° 0.1 mm 2 mps 650 mmHg 54%
    14:00 +24°C° 0.2 mm 1 mps 649 mmHg 56%
    15:00 +23°C° 0.2 mm 1 mps 648 mmHg 58%
    16:00 +23°C° 0.2 mm 1 mps 648 mmHg 60%
    17:00 +22°C° 0.2 mm 1 mps 648 mmHg 65%
    18:00 +20°C° 0.2 mm 1 mps 648 mmHg 70%
    19:00 +19°C° 0.2 mm 1 mps 647 mmHg 75%
    20:00 +19°C° 0.1 mm 1 mps 648 mmHg 76%
    21:00 +18°C° 0.1 mm 1 mps 648 mmHg 77%
    22:00 +18°C° 0.1 mm 1 mps 648 mmHg 78%
    23:00 +16°C° 0.1 mm 1 mps 648 mmHg 78%

    23 February, Friday

    Time Temperature Precipitation Wind Pressure Humidity
    00:00 +16°C° 0.1 mm 1 mps 648 mmHg 79%
    01:00 +16°C° 0.1 mm 1 mps 647 mmHg 79%
    02:00 +15°C° 0 mm 1 mps 647 mmHg 80%
    03:00 +15°C° 0 mm 1 mps 647 mmHg 80%
    04:00 +15°C° 0 mm 1 mps 647 mmHg 80%
    05:00 +15°C° 0 mm 1 mps 648 mmHg 78%
    06:00 +16°C° 0 mm 1 mps 648 mmHg 76%
    07:00 +16°C° 0 mm 1 mps 649 mmHg 73%
    08:00 +20°C° 0 mm 1 mps 649 mmHg 64%
    09:00 +22°C° 0 mm 1 mps 650 mmHg 55%
    10:00 +24°C° 0 mm 2 mps 651 mmHg 45%
    11:00 +24°C° 0 mm 2 mps 650 mmHg 44%
    12:00 +25°C° 0 mm 2 mps 650 mmHg 43%
    13:00 +25°C° 0 mm 2 mps 649 mmHg 42%
    14:00 +25°C° 0 mm 2 mps 649 mmHg 43%
    15:00 +25°C° 0 mm 2 mps 648 mmHg 44%
    16:00 +24°C° 0 mm 2 mps 647 mmHg 45%
    17:00 +22°C° 0 mm 1 mps 647 mmHg 52%
    18:00 +20°C° 0 mm 1 mps 647 mmHg 60%
    19:00 +18°C° 0 mm 1 mps 646 mmHg 67%
    20:00 +18°C° 0 mm 1 mps 647 mmHg 68%
    21:00 +16°C° 0 mm 1 mps 647 mmHg 69%
    22:00 +16°C° 0 mm 2 mps 647 mmHg 71%
    23:00 +16°C° 0 mm 2 mps 647 mmHg 72%
    Show more